^^
Meteo Knjazevac Station Historical Data
Daily Summary for September 27, 2022 Units:  Metric    English   Both
Daily Weekly Monthly Yearly Custom
  High: Low: Average:
Temperature: 15.4 °C 15 °C 15.1 °C
Dew Point: 15.2 °C 14.8 °C 14.9 °C
Humidity: 99% 99% 99%
Wind Speed: 15.6km/h 5.5km/h 10.5km/h
Wind Gust: 16.1km/h - -
Wind- - SW
Pressure: 1010.4 hPa 1009 hPa -
Precipitation: 4.06 mm    
Historical Graphs
 
 
Tabular Data for September 27, 2022
Time Temperature Dew Point Pressure Wind Wind Speed Wind Gust Humidity Rainfall Rate (Hourly) solar Conditions
00:04 15.1 °C 14.9 °C 1010.4 hPa SSW 11.4 km/h 11.3 km/h 99% 4.57 mm 0 W/m2
00:09 15.1 °C 14.9 °C 1010.4 hPa SSW 11.3 km/h 12.9 km/h 99% 4.06 mm 0 W/m2
00:14 15.1 °C 14.9 °C 1010.4 hPa SSW 15.3 km/h 14 km/h 99% 3.3 mm 0 W/m2
00:19 15.1 °C 14.9 °C 1010.4 hPa SW 11.9 km/h 16.1 km/h 99% 3.56 mm 0 W/m2
00:24 15.1 °C 14.9 °C 1010.4 hPa SW 12.2 km/h 14.5 km/h 99% 3.81 mm 0 W/m2
00:29 15.1 °C 14.9 °C 1010.4 hPa SSW 12.1 km/h 12.9 km/h 99% 3.81 mm 0 W/m2
00:34 15.1 °C 14.9 °C 1010.4 hPa SW 10.9 km/h 12.9 km/h 99% 3.81 mm 0 W/m2
00:39 15.1 °C 14.9 °C 1010.4 hPa SW 11.1 km/h 11.3 km/h 99% 3.81 mm 0 W/m2
00:44 15.1 °C 14.9 °C 1010.4 hPa SW 10.9 km/h 11.3 km/h 99% 3.56 mm 0 W/m2
00:49 15.1 °C 14.9 °C 1010 hPa SSW 11.3 km/h 11.3 km/h 99% 3.3 mm 0 W/m2
00:54 15.1 °C 14.9 °C 1010 hPa SSW 12.1 km/h 12.9 km/h 99% 3.05 mm 0 W/m2
00:59 15.1 °C 14.9 °C 1010 hPa SSW 11.3 km/h 12.9 km/h 99% 3.05 mm 0 W/m2
01:04 15.1 °C 14.9 °C 1010 hPa SW 11.1 km/h 11.3 km/h 99% 3.05 mm 0 W/m2
01:09 15.1 °C 14.9 °C 1010 hPa SW 11.1 km/h 11.3 km/h 99% 3.05 mm 0 W/m2
01:14 15 °C 14.8 °C 1010 hPa SW 10.9 km/h 11.3 km/h 99% 2.79 mm 0 W/m2
01:19 15 °C 14.8 °C 1010 hPa SW 10.9 km/h 11.3 km/h 99% 2.54 mm 0 W/m2
01:24 15 °C 14.8 °C 1009.7 hPa SW 10.8 km/h 11.3 km/h 99% 2.03 mm 0 W/m2
01:29 15 °C 14.8 °C 1009.7 hPa SW 11.7 km/h 11.3 km/h 99% 1.78 mm 0 W/m2
01:34 15.1 °C 14.9 °C 1009.7 hPa SW 11.1 km/h 12.9 km/h 99% 1.52 mm 0 W/m2
01:39 15.1 °C 14.9 °C 1009.7 hPa SW 9.5 km/h 11.3 km/h 99% 1.52 mm 0 W/m2
01:44 15.1 °C 14.9 °C 1009.7 hPa SSW 9.2 km/h 9.7 km/h 99% 1.02 mm 0 W/m2
01:49 15.1 °C 14.9 °C 1009.7 hPa SSW 8.7 km/h 9.7 km/h 99% 1.02 mm 0 W/m2
01:54 15.1 °C 14.9 °C 1009.7 hPa SE 9.3 km/h 11.3 km/h 99% 0.76 mm 0 W/m2
01:59 15.1 °C 14.9 °C 1009.7 hPa NNE 6 km/h 9.7 km/h 99% 0.76 mm 0 W/m2
02:04 15.1 °C 14.9 °C 1009.7 hPa NNW 7.1 km/h 4.8 km/h 99% 0.51 mm 0 W/m2
02:09 15.1 °C 14.9 °C 1009.7 hPa NW 5.5 km/h 9.7 km/h 99% 0.51 mm 0 W/m2
02:14 15.1 °C 14.9 °C 1009.4 hPa NNW 7.2 km/h 5 km/h 99% 0.51 mm 0 W/m2
02:19 15.1 °C 14.9 °C 1009.4 hPa NW 8.7 km/h 9.7 km/h 99% 0.51 mm 0 W/m2
02:24 15.1 °C 14.9 °C 1009.4 hPa WNW 11.3 km/h 11.3 km/h 99% 0.51 mm 0 W/m2
02:29 15.2 °C 15 °C 1009.4 hPa WNW 12.1 km/h 12.9 km/h 99% 0.51 mm 0 W/m2
02:34 15.2 °C 15.1 °C 1009.4 hPa WNW 15.6 km/h 14.5 km/h 99% 0.51 mm 0 W/m2
02:39 15.3 °C 15.1 °C 1009.4 hPa NW 10.1 km/h 16.1 km/h 99% 0.51 mm 0 W/m2
02:44 15.3 °C 15.2 °C 1009.4 hPa NNE 7.1 km/h 11.3 km/h 99% 0.51 mm 0 W/m2
02:49 15.3 °C 15.2 °C 1009.4 hPa ENE 7.9 km/h 9.7 km/h 99% 0.51 mm 0 W/m2
02:54 15.4 °C 15.2 °C 1009 hPa ENE 9.3 km/h 11.3 km/h 99% 0.51 mm 0 W/m2
Knjazevac, Serbia
Compliments of Weather Underground - 2 mb